Flag for Norway Weather past 2 weeks in Lillesand, Norway

Now
48 °F

Cool.


Feels Like: 48 °F
Forecast: 46 / 52 °F
Wind: 2 mph from East

Location: Kristiansand / Kjevik

Current Time: May 5, 2015 at 12:13:38 AM

Latest Report: May 4, 2015 at 10:00 PM


Visibility: N/A

Pressure: 29.72 "Hg

Humidity: 97%

Dew point: 47 °F

Location of LillesandLocation

Historic Weather in Lillesand — Graph

°F

Lillesand temperature yesterday

Maximum temperature yesterday: 52 °F (at 4:00 PM)
Minimum temperature yesterday: 44 °F (at 6:00 AM)
Average temperature yesterday: 48 °F

Past Weeks' High & Low Weather Summary

 TemperatureHumidityPressure
High74 °F (Apr 20, 4:00 PM)100% (Apr 30, 6:00 AM)30.41 "Hg (Apr 30, 6:00 AM)
Low29 °F (Apr 27, 6:00 AM)15% (Apr 20, 5:00 PM)29.41 "Hg (Apr 25, 5:00 PM)
Average46 °F71%29.84 "Hg
* Reported Apr 19 10:00 PM — May 4 10:00 PM, Lillesand, Weather by CustomWeather, © 2015

Note: Actual official high and low records may vary slightly from our data, if they occured in-between our weather recording intervals... More about our weather records

Advertising

Lillesand weather history for previous 24 hours

 ConditionsComfort  
Time TempWeatherWind HumidityBarometerVisibility
10:00 PM
Mon, May 4
48 °FCool.2 mph97%29.72 "HgN/A
9:00 PM48 °FCool.2 mph96%29.71 "HgN/A
8:00 PM48 °FCool.3 mph93%29.69 "HgN/A
7:00 PM49 °FCool.2 mph93%29.67 "HgN/A
6:00 PM50 °FCool.2 mph92%29.66 "HgN/A
5:00 PM51 °FCool.1 mph84%29.64 "HgN/A
4:00 PM52 °FCool.1 mph80%29.62 "HgN/A
3:00 PM51 °FCool.1 mph83%29.61 "HgN/A
2:00 PM50 °FCool.3 mph84%29.57 "HgN/A
1:00 PM49 °FCool.5 mph87%29.56 "HgN/A
12:00 PM47 °FCool.6 mph91%29.54 "HgN/A
11:00 AM46 °FCool.6 mph94%29.50 "HgN/A
10:00 AM46 °FCool.7 mph94%29.50 "HgN/A
9:00 AM45 °FCool.8 mph93%29.50 "HgN/A
8:00 AM44 °FQuite cool.9 mph93%29.50 "HgN/A
7:00 AM44 °FQuite cool.9 mph91%29.50 "HgN/A
6:00 AM44 °FQuite cool.10 mph90%29.54 "HgN/A
4:00 AM45 °FCool.8 mph88%29.59 "HgN/A
3:00 AM46 °FCool.9 mph77%29.62 "HgN/A
2:00 AM48 °FCool.8 mph67%29.65 "HgN/A
1:00 AM48 °FCool.8 mph64%29.66 "HgN/A
12:00 AM48 °FCool.8 mph61%29.69 "HgN/A
Weather by CustomWeather, © 2015

See weather overviewHow to use our weather pages